Date String (YYYY-MM-DD hh:mm:ss) UTC,Instrument flags,absolute air pressure of the measurement (hPa),sample flow rate (lpm),inlet stack bypass flow (lpm),air temperature of the measurement (°C),ambient temperature measured by the external sensor (°C),aerosol sample conditioner tube jacket temperature (°C),OPC LED temperature (°C),internal box temperature (°C),relative humidity of the measurement (%),span deviation,mass concentration of particles derived from Lorenz-Mie calculation of OPC scattering (μg/m³),mass concentration of particles derived from Lorenz-Mie calculation of OPC scattering (μg/m³),mass concentration of particles derived from Lorenz-Mie calculation of OPC scattering (μg/m³)
DateTimeUTC,F1_M11,P_M11,Q1_M11,Q2_M11,T1_M11,T2_M11,T3_M11,T4_M11,T5_M11,U1_M11,ZSPAN_M11,X2_M11,X0_M11,X1_M11
2023-12-12 07:00:00,SystemResetWarning,0834.1,5.00,000.00,023.1,022.1,000.0,031.5,024.5,21.9,0000.0,0006.34,0008.42,0006.03
2023-12-12 07:01:00,SystemResetWarning,0834.1,4.99,000.00,023.1,022.1,000.0,031.5,024.4,21.9,0000.0,0006.36,0008.45,0006.04
2023-12-12 07:02:00,SystemResetWarning,0834.1,5.00,000.00,023.1,022.1,000.0,031.5,024.4,22.0,0000.0,0006.40,0008.50,0006.09
2023-12-12 07:03:00,SystemResetWarning,0834.1,5.00,000.00,023.1,022.1,000.0,031.5,024.4,22.0,0000.0,0006.42,0008.49,0006.13
2023-12-12 07:04:00,SystemResetWarning,0834.1,5.01,000.00,023.1,022.1,000.0,031.5,024.4,22.0,0000.0,0006.46,0008.58,0006.17
2023-12-12 07:05:00,SystemResetWarning,0834.1,5.00,000.00,023.1,022.1,000.0,031.5,024.4,22.0,0000.0,0006.49,0008.62,0006.19
2023-12-12 07:06:00,SystemResetWarning,0834.1,5.01,000.00,023.1,022.1,000.0,031.5,024.4,22.0,0000.0,0006.48,0008.59,0006.19
2023-12-12 07:07:00,SystemResetWarning,0834.1,5.00,000.00,023.1,022.1,000.0,031.4,024.4,22.0,0000.0,0006.50,0008.60,0006.21
2023-12-12 07:08:00,SystemResetWarning,0834.1,5.00,000.00,023.1,022.1,000.0,031.4,024.4,22.1,0000.0,0006.53,0008.64,0006.23
2023-12-12 07:09:00,SystemResetWarning,0834.1,5.00,000.00,023.1,022.1,000.0,031.4,024.4,22.1,0000.0,0006.55,0008.70,0006.26
2023-12-12 07:10:00,SystemResetWarning,0834.1,5.00,000.00,023.1,022.1,000.0,031.4,024.4,22.1,0000.0,0006.55,0008.66,0006.27
2023-12-12 07:11:00,SystemResetWarning,0834.1,5.00,000.00,023.1,022.0,000.0,031.4,024.3,22.1,0000.0,0006.57,0008.67,0006.29
2023-12-12 07:12:00,SystemResetWarning,0834.1,5.00,000.00,023.0,022.0,000.0,031.4,024.3,22.1,0000.0,0006.59,0008.80,0006.31
2023-12-12 07:13:00,SystemResetWarning,0834.1,5.01,000.00,023.0,022.0,000.0,031.4,024.3,22.1,0000.0,0006.61,0009.14,0006.32
2023-12-12 07:14:00,SystemResetWarning,0834.1,5.01,000.00,023.0,022.0,000.0,031.4,024.2,22.2,0000.0,0006.64,0009.28,0006.34
2023-12-12 07:15:00,SystemResetWarning,0834.1,5.00,000.00,023.0,022.0,000.0,031.4,024.2,22.2,0000.0,0006.65,0009.17,0006.37
2023-12-12 07:16:00,SystemResetWarning,0834.0,5.00,000.00,023.0,022.0,000.0,031.4,024.2,22.2,0000.0,0006.68,0009.20,0006.39
2023-12-12 07:17:00,SystemResetWarning,0834.0,4.98,000.00,023.0,022.0,000.0,031.4,024.1,22.2,0000.0,0006.74,0009.32,0006.43
2023-12-12 07:18:00,SystemResetWarning,0834.0,5.00,000.00,022.9,022.0,000.0,031.3,024.1,22.2,0000.0,0006.77,0009.37,0006.46
2023-12-12 07:19:00,SystemResetWarning,0834.0,5.01,000.00,022.9,021.9,000.0,031.3,024.0,22.2,0000.0,0006.81,0009.38,0006.51
2023-12-12 07:20:00,SystemResetWarning,0834.1,5.01,000.00,022.9,021.9,000.0,031.3,024.0,22.3,0000.0,0006.84,0009.37,0006.56
2023-12-12 07:21:00,SystemResetWarning,0834.1,5.00,000.00,022.9,021.9,000.0,031.3,024.0,22.3,0000.0,0006.89,0009.41,0006.61
2023-12-12 07:22:00,SystemResetWarning,0834.1,4.99,000.00,022.8,021.9,000.0,031.3,024.0,22.3,0000.0,0006.92,0009.40,0006.66
2023-12-12 07:23:00,SystemResetWarning,0834.0,4.99,000.00,022.8,021.8,000.0,031.3,024.0,22.4,0000.0,0006.95,0009.28,0006.72
2023-12-12 07:24:00,SystemResetWarning,0834.1,4.99,000.00,022.8,021.8,000.0,031.2,024.0,22.4,0000.0,0006.99,0008.91,0006.77
2023-12-12 07:25:00,SystemResetWarning,0834.0,5.00,000.00,022.8,021.8,000.0,031.2,024.0,22.4,0000.0,0007.06,0008.88,0006.84
2023-12-12 07:26:00,SystemResetWarning,0834.0,5.01,000.00,022.8,021.8,000.0,031.2,024.0,22.4,0000.0,0007.12,0008.94,0006.89
2023-12-12 07:27:00,SystemResetWarning,0834.0,5.00,000.00,022.8,021.8,000.0,031.2,023.9,22.4,0000.0,0007.16,0008.96,0006.93
2023-12-12 07:28:00,SystemResetWarning,0834.0,5.00,000.00,022.7,021.8,000.0,031.2,023.9,22.4,0000.0,0007.17,0009.10,0006.96
2023-12-12 07:29:00,SystemResetWarning,0834.0,5.00,000.00,022.7,021.8,000.0,031.2,023.9,22.4,0000.0,0007.20,0009.72,0006.98
2023-12-12 07:30:00,SystemResetWarning,0834.0,5.00,000.00,022.7,021.8,000.0,031.1,023.9,22.4,0000.0,0007.23,0009.77,0007.02
2023-12-12 07:31:00,SystemResetWarning,0834.0,5.00,000.00,022.7,021.7,000.0,031.1,023.9,22.5,0000.0,0007.25,0009.80,0007.05
2023-12-12 07:32:00,SystemResetWarning,0834.0,4.99,000.00,022.7,021.7,000.0,031.1,023.9,22.5,0000.0,0007.28,0009.86,0007.08
2023-12-12 07:33:00,SystemResetWarning,0834.0,5.00,000.00,022.7,021.7,000.0,031.1,023.9,22.5,0000.0,0007.31,0009.91,0007.09
2023-12-12 07:34:00,SystemResetWarning,0834.0,4.99,000.00,022.7,021.7,000.0,031.1,023.9,22.5,0000.0,0007.32,0010.06,0007.09
2023-12-12 07:35:00,SystemResetWarning,0834.0,4.99,000.00,022.7,021.7,000.0,031.1,023.9,22.5,0000.0,0007.32,0010.03,0007.09
2023-12-12 07:36:00,SystemResetWarning,0834.0,5.00,000.00,022.7,021.7,000.0,031.1,023.9,22.5,0000.0,0007.29,0009.97,0007.08
2023-12-12 07:37:00,SystemResetWarning,0834.0,5.00,000.00,022.7,021.7,000.0,031.1,023.9,22.5,0000.0,0007.28,0009.94,0007.07
2023-12-12 07:38:00,SystemResetWarning,0834.0,5.00,000.00,022.6,021.7,000.0,031.0,023.9,22.5,0000.0,0007.30,0010.06,0007.08
2023-12-12 07:39:00,SystemResetWarning,0833.9,5.01,000.00,022.6,021.7,000.0,031.0,023.9,22.5,0000.0,0007.32,0010.10,0007.09
2023-12-12 07:40:00,SystemResetWarning,0833.9,5.00,000.00,022.6,021.7,000.0,031.0,023.8,22.5,0000.0,0007.32,0009.36,0007.11
2023-12-12 07:41:00,SystemResetWarning,0833.9,5.00,000.00,022.6,021.7,000.0,031.0,023.8,22.5,0000.0,0007.32,0009.27,0007.12
2023-12-12 07:42:00,SystemResetWarning,0833.9,5.00,000.00,022.6,021.6,000.0,031.0,023.8,22.5,0000.0,0007.32,0009.25,0007.12
2023-12-12 07:43:00,SystemResetWarning,0833.9,5.00,000.00,022.6,021.6,000.0,031.0,023.8,22.6,0000.0,0007.33,0009.27,0007.13
2023-12-12 07:44:00,SystemResetWarning,0834.0,4.99,000.00,022.6,021.6,000.0,031.0,023.8,22.6,0000.0,0007.32,0009.24,0007.12
2023-12-12 07:45:00,SystemResetWarning,0834.0,4.99,000.00,022.6,021.6,000.0,031.0,023.8,22.6,0000.0,0007.32,0009.20,0007.11
2023-12-12 07:46:00,SystemResetWarning,0833.9,5.01,000.00,022.6,021.6,000.0,031.0,023.9,22.5,0000.0,0007.30,0009.15,0007.09
2023-12-12 07:47:00,SystemResetWarning,0833.9,5.01,000.00,022.6,021.6,000.0,031.0,023.9,22.5,0000.0,0007.31,0009.19,0007.09
2023-12-12 07:48:00,SystemResetWarning,0833.8,5.00,000.00,022.6,021.6,000.0,031.0,023.9,22.6,0000.0,0007.30,0009.19,0007.09
2023-12-12 07:49:00,SystemResetWarning,0833.8,4.99,000.00,022.6,021.6,000.0,030.9,023.9,22.6,0000.0,0007.28,0009.15,0007.07
2023-12-12 07:50:00,SystemResetWarning,0833.9,4.99,000.00,022.6,021.6,000.0,030.9,023.9,22.5,0000.0,0007.25,0008.99,0007.04
2023-12-12 07:51:00,SystemResetWarning,0833.9,4.99,000.00,022.6,021.6,000.0,030.9,023.9,22.5,0000.0,0007.22,0009.01,0006.99
2023-12-12 07:52:00,SystemResetWarning,0833.9,5.01,000.00,022.6,021.6,000.0,030.9,023.9,22.5,0000.0,0007.17,0009.01,0006.94
2023-12-12 07:53:00,SystemResetWarning,0833.9,5.00,000.00,022.6,021.6,000.0,030.9,023.8,22.5,0000.0,0007.14,0008.99,0006.89
2023-12-12 07:54:00,SystemResetWarning,0833.9,5.01,000.00,022.6,021.6,000.0,030.9,023.9,22.5,0000.0,0007.11,0008.93,0006.86
2023-12-12 07:55:00,SystemResetWarning,0833.8,5.00,000.00,022.6,021.6,000.0,030.9,023.9,22.5,0000.0,0007.08,0008.89,0006.83
2023-12-12 07:56:00,SystemResetWarning,0833.9,4.99,000.00,022.6,021.6,000.0,030.9,023.9,22.5,0000.0,0007.04,0008.80,0006.81
2023-12-12 07:57:00,SystemResetWarning,0833.9,4.99,000.00,022.6,021.6,000.0,030.9,023.9,22.5,0000.0,0007.04,0008.80,0006.81
2023-12-12 07:58:00,SystemResetWarning,0833.9,5.00,000.00,022.6,021.6,000.0,030.9,023.9,22.5,0000.0,0007.03,0008.81,0006.81
2023-12-12 07:59:00,SystemResetWarning,0833.8,5.01,000.00,022.6,021.6,000.0,030.9,023.9,22.5,0000.0,0007.03,0008.80,0006.80
